FW1524 Weather Reports


time (UTC)temp
F
wind
direction
speed
knots
gust
knots
rain 1hr
in
rain 24hr
in
rain mn
in
humidity
%
barometer
mb
20260901054550 158 220 0.0 0.0 0.00 0.40 0.00 1 1012.7
20260901053116 158 220 0.0 0.0 0.00 0.40 0.00 1 1012.9
20260901051603 158 220 0.0 0.0 0.00 0.40 0.00 1 1012.9
20260901044555 158 220 0.0 0.0 0.00 0.40 0.00 1 1013.1
20260901043040 158 220 0.0 0.0 0.00 0.40 0.40 1 1013.3
20260901041535 158 220 0.0 0.0 0.00 0.40 0.40 1 1013.2
20260901034532 158 220 0.0 0.0 0.00 0.40 0.40 1 1013.4
20260901033029 158 220 0.0 0.0 0.00 0.40 0.40 1 1013.5
20260901031524 158 220 0.0 0.0 0.00 0.40 0.40 1 1013.5
20260901024513 158 220 0.0 0.0 0.00 0.40 0.40 1 1013.7
20260901023011 158 220 0.0 0.0 0.00 0.40 0.40 1 1014.0
20260901021510 158 220 0.0 0.0 0.04 0.40 0.40 1 1014.0
20260901014501 158 220 0.0 0.0 0.07 0.40 0.40 1 1014.3
20260901013058 158 220 0.0 0.0 0.07 0.40 0.40 1 1014.4
20260901011553 158 220 0.0 0.0 0.08 0.40 0.40 1 1014.5
20260901004543 158 220 0.0 0.0 0.01 0.33 0.33 1 1014.4
20260901003041 158 220 0.0 0.0 0.01 0.33 0.33 1 1014.3
20260901001535 158 220 0.0 0.0 0.00 0.32 0.32 1 1014.2
20260831234530 158 220 0.0 0.0 0.00 0.32 0.32 1 1014.5
20260831233026 158 220 0.0 0.0 0.01 0.32 0.32 1 1014.5
20260831231522 158 220 0.0 0.0 0.01 0.32 0.32 1 1014.7
20260831224518 158 220 0.0 0.0 0.02 0.32 0.32 1 1015.2
20260831223016 158 220 0.0 0.0 0.01 0.31 0.31 1 1015.5
20260831221512 158 220 0.0 0.0 0.01 0.31 0.31 1 1015.6
20260831214600 158 170 0.0 0.0 0.02 0.30 0.30 1 1015.9
20260831213103 158 173 0.0 0.0 0.02 0.30 0.30 1 1016.0
20260831211601 158 173 0.0 0.0 0.02 0.30 0.30 1 1016.1
20260831204550 158 173 0.0 0.0 0.07 0.28 0.28 1 1016.2
20260831203038 158 169 0.0 0.0 0.06 0.28 0.28 1 1016.3
20260831201533 158 169 0.0 0.0 0.06 0.28 0.28 1 1016.4
20260831194531 158 169 0.0 0.0 0.00 0.22 0.22 1 1016.7
20260831193034 158 168 0.0 0.0 0.00 0.22 0.22 1 1016.8
20260831191518 67 168 0.0 0.0 0.00 0.22 0.22 1 1017.0
20260831184513 67 173 0.0 0.0 0.02 0.22 0.22 1 1017.3
20260831183009 67 164 0.0 0.0 0.04 0.22 0.22 1 1017.6
20260831181505 66 167 0.0 0.0 0.06 0.22 0.22 1 1017.8
20260831174559 67 169 0.0 0.0 0.08 0.21 0.21 1 1018.2
20260831173055 67 169 0.0 0.0 0.08 0.18 0.18 1 1018.3
20260831171553 68 169 0.0 0.0 0.16 0.17 0.17 1 1018.5
20260831170149 68 165 0.0 0.0 0.14 0.14 0.14 1 1018.5
20260831164557 69 165 0.0 0.0 0.14 0.14 0.14 1 1018.6
20260831163044 70 94 0.0 0.0 0.10 0.10 0.10 1 1018.6
20260831161537 69 94 0.0 0.0 0.02 0.02 0.02 1 1018.8
20260831160134 69 94 0.0 0.0 0.00 0.00 0.00 1 1018.5
20260831154534 69 94 0.0 0.0 0.00 0.00 0.00 1 1018.5
20260831153028 69 94 0.0 0.0 0.00 0.00 0.00 1 1018.5
20260831151526 68 94 0.0 0.0 0.00 0.00 0.00 1 1018.5
20260831150126 68 96 0.0 0.0 0.00 0.00 0.00 1 1018.5
20260831144524 67 121 0.0 0.0 0.00 0.00 0.00 1 1018.6
20260831143023 67 126 0.0 0.0 0.00 0.00 0.00 1 1018.5
20260831141519 66 54 0.0 0.0 0.00 0.00 0.00 1 1018.5
20260831140115 64 42 0.0 0.0 0.00 0.00 0.00 1 1018.5
20260831134514 64 93 0.0 0.0 0.00 0.00 0.00 1 1018.7
20260831133009 63 224 0.0 0.0 0.00 0.00 0.00 1 1018.8
20260831131504 63 224 0.0 0.0 0.00 0.00 0.00 1 1018.9
20260831130101 63 224 0.0 0.0 0.00 0.00 0.00 1 1018.9
20260831124502 62 224 0.0 0.0 0.00 0.00 0.00 1 1018.9
20260831123057 62 224 0.0 0.0 0.00 0.00 0.00 1 1018.8
20260831121553 61 224 0.0 0.0 0.00 0.00 0.00 1 1019.0
20260831120050 61 224 0.0 0.0 0.00 0.00 0.00 1 1019.1
20260831114551 61 224 0.0 0.0 0.00 0.00 0.00 1 1018.9
20260831113047 61 224 0.0 0.0 0.00 0.00 0.00 1 1018.9
20260831111556 61 224 0.0 0.0 0.00 0.00 0.00 1 1018.9
20260831110046 61 224 0.0 0.0 0.00 0.00 0.00 1 1018.4
20260831104523 61 224 0.0 0.0 0.00 0.00 0.00 1 1018.4
20260831103019 60 224 0.0 0.0 0.00 0.00 0.00 1 1018.1
20260831101515 61 224 0.0 0.0 0.00 0.00 0.00 1 1018.4
20260831100010 60 224 0.0 0.0 0.00 0.00 0.00 1 1018.3
20260831094512 61 224 0.0 0.0 0.00 0.00 0.00 1 1018.3
20260831093011 60 224 0.0 0.0 0.00 0.00 0.00 1 1018.4
20260831091507 60 224 0.0 0.0 0.00 0.00 0.00 1 1018.4
20260831090059 59 224 0.0 0.0 0.00 0.00 0.00 1 1018.2
20260831084607 60 224 0.0 0.0 0.00 0.00 0.00 1 1018.0
20260831083103 59 224 0.0 0.0 0.00 0.00 0.00 1 1018.2
20260831081547 61 224 0.0 0.0 0.00 0.00 0.00 1 1018.1
20260831080042 61 224 0.0 0.0 0.00 0.00 0.00 1 1018.1
20260831074536 61 224 0.0 0.0 0.00 0.00 0.00 1 1018.2
20260831073032 61 224 0.0 0.0 0.00 0.00 0.00 1 1018.0
20260831071532 63 224 0.0 0.0 0.00 0.00 0.00 1 1017.8
20260831070024 62 224 0.0 0.0 0.00 0.00 0.00 1 1018.1
20260831064521 63 224 0.0 0.0 0.00 0.00 0.00 1 1017.9
20260831063016 64 224 0.0 0.0 0.00 0.00 0.00 1 1018.2
20260831061512 64 224 0.0 0.0 0.00 0.00 0.00 1 1018.3
20260831060008 64 224 0.0 0.0 0.00 0.00 0.00 1 1018.4